COSMOS 627 DEB, 45504

Orbit data source: Space-Track

COSMOS 627 DEB, 45504 is space debris in LEO originally from a launch on Sat, 29 Dec 1973 UTC launched from the Plesetsk Missile And Space Complex (PKMTR). Debris objects in space refer to the collection of defunct objects orbiting the Earth. Examples of debris include non-operational satellites, rocket bodies, and fragments generated from explosions, collisions, or faulty payload assembly.

Loading next visibility...
COSMOS 627 DEB details
Identifier
45504, 1973-109C
Orbit
LEO
Last TLE update2 days ago
Origin
Flag of CISVMF RF (CIS)
ManufacturerUnknown
MissionSpacecraft
Bus & MotorUnknown
MassUnknown
Launch date (UTC)
1973-12-29 (51 years ago)
Launch vehicleUnknown
Launch site
Plesetsk Missile And Space Complex (PKMTR)
Object type
Payload
Rocket body
Debris
Shape & HBRUnknown
Radar Cross SectionSmall (<0.1 m²)

Expand to show TLE details & history

TLE from 2 days ago
0 COSMOS 627 DEB
1 45504U 73109C   24359.70023780  .00000465  00000-0  47731-3 0  9998
2 45504  82.9530 156.8053 0031399  29.2848 331.0059 13.74110422549771
Epoch: 2024-12-24T16:48Z
Definitive object data (Epoch: 2024-12-24T16:48:20.545Z)
Latitude-0.00006°
Longitude171.01511°
Altitude967.541 km
Speed7.378 km/s
True Right ascension10h 27m 13s
True Declination0° 00' 00"
Sunlit
Object was in daylight at TLE epoch
Visualization TLE readout
Latitude-42.30394°
Longitude-3.8827°
Altitude1,023.034 km
Speed7.328 km/s
Apparent Right ascension22h 58m 39s
Apparent Declination-41° 03' 33"
Sunlit
Object is in daylight
Visualization observer readout
Local Sidereal Time11:10:59
Azimuth116.978° SE
Elevation-87.391°
Doppler factor1
Orbital elements
Apogee altitude1,005.111 km
Perigee altitude958.89 km
Semi-major axis7,360.137 km
Eccentricity0.0031399
Inclination82.953°
RAAN156.8053°
Arg. of periapsis29.2848°
True anomaly330.83089°
Mean anomaly331.0059°
Eccentric anomaly330.91846°
Mean motion3.43727 °/min
BSTAR0.00047731
Orbital period104.73 mins
Loading maneuver chart data...
Loading historical data...
Loading historical data...
Loading historical data...
Loading historical data...
Loading historical data...
Loading historical data...
Loading historical data...
Other satellites on launch #109 in the year 1973 (1973-12-29 UTC)

COSMOS 627 DEB Visibility forecast

Observer location: undefined°, undefined

Span
Click to sort rows by Start time (UTC) header in descending order
Start Az.
Max El. time (UTC)
Max El. Az.
Max El.
End time (UTC)
End Az.
8 mins2024-12-26 12:38:34.658Z246.949° WSW2024-12-26 12:42:34.658Z293.403° NW20.284°2024-12-26 12:46:34.658Z336.169° NNW
10 mins2024-12-26 21:49:34.658Z11.975° NNE2024-12-26 21:54:34.658Z89.301° E34.585°2024-12-26 21:59:34.658Z146.996° SSE
8 mins2024-12-26 23:35:34.658Z320.681° NNW2024-12-26 23:39:34.658Z271.524° WNW24.322°2024-12-26 23:43:34.658Z225.632° WSW
11 mins2024-12-27 11:19:34.658Z190.878° SSW2024-12-27 11:24:34.658Z294.709° NW44.513°2024-12-27 11:30:34.658Z4.819° NNE
|